Location: Grange Rosano
(44.4500°N, 6.9667°E)
Time: 08:40:28
(UTC+00:00)

Cosmos 1943 - Pass Details

Date: 26 May 2022
Orbit: 834 x 849 km, 71.0° (Epoch: 01 July)

Event Time Altitude Azimuth Distance (km) Brightness Sun altitude
Exits shadow 02:50:26 11° 208° (SSW) 2,399 5.0 -10.0°
Maximum altitude 02:55:56 80° 296° (WNW) 866 3.2 -9.2°
Drops below altitude 10° 03:01:39 10° 24° (NNE) 2,479 6.8 -8.5°
Sets 03:04:07 0° 25° (NNE) 3,416 7.7 -8.1°
